Search for airport 
image banner adimage banner ad
image banner ad

DAOO - Oran/Ahmed Benbella

Located in Oran, Algeria

ICAO - DAOO, IATA - ORN

Data provided by Airmate  

General information

Coordinates: N35°37'38" W0°36'41"
Elevation is 298 feet MSL.
 
Rated:
View ratings:
[VIEW]
View others Airports in Oran Province

Operational data

Open for public use
Current time UTC:
Current local time:
Weather
METAR: DAOO 230000Z 22002KT 9999 FEW026 BKN100 17/15 Q1020
TAF: TAF DAOO 222300Z 2300/2324 VRB02KT 9999 FEW026 BKN100 BECMG 2310/2312 24010KT PROB40 TEMPO 2306/2314 5000 RA SCT010
View NOTAMs / SUP AIP / TFR affecting this airport [VIEW]
Communications frequencies: [VIEW]

Runways:

RWY identifierQFULength (ft)Width (ft)SurfaceLDA (ft)
07R67°9843148
25L247°9843148
07L67°11811148
25R247°11811148

Airport contact information

Address: Oran Algeria

Satellite view of DAOO